Location: Unspecified
(58.9933°N, 5.6375°E)
Time: 01:02:34
(UTC+02:00)

CZ-3 Stage 3 - Visible Passes

Search period start: 31 March 2015 00:00
Search period end: 10 April 2015 00:00
Orbit: 423 x 34806 km, 31.0° (Epoch: 30 March)

Date Brightness Start Highest point End Pass type
(mag) Time Alt. Az. Time Alt. Az. Time Alt. Az.
31 Mar 7.4 15:28:19 10° SW 23:32:17 29° WSW 00:15:47 10° SSW visible
03 Apr 7.5 15:22:56 10° SW 23:25:27 28° WSW 00:09:44 10° SW visible
06 Apr 7.6 15:17:33 10° SW 23:18:28 27° WSW 00:03:33 10° SW visible
09 Apr 8.1 15:12:10 10° SW 23:11:22 26° WSW 23:57:12 10° SW visible
